Flag Weather past 2 weeks in Metlakatla, Alaska, U.S.A.

Now
39 °F

Passing clouds.


Feels Like: 36 °F
Forecast: 42 / 45 °F
Wind: 5 mph from East

Location: Metlakatla - Metlakatla Seaplane Base

Current Time: Nov 21, 2014 at 7:14:32 PM

Latest Report: Nov 21, 2014 at 6:56 PM


Visibility: 8 mi

Pressure: 29.27 "Hg

Humidity: 93%

Dew point: 37 °F

Location of MetlakatlaLocation

Historic Weather in Metlakatla — Graph

°F

Metlakatla temperature yesterday

Maximum temperature yesterday: 50 °F (at 7:16 PM)
Minimum temperature yesterday: 46 °F (at 12:16 AM)
Average temperature yesterday: 47 °F

Past Weeks' High & Low Weather Summary

 TemperatureHumidityPressure
High52 °F (Nov 19, 12:16 AM)93% (Nov 8, 1:56 AM)30.53 "Hg (Nov 8, 1:56 AM)
Low34 °F (Nov 15, 6:36 AM)23% (Nov 12, 11:36 PM)29.18 "Hg (Nov 21, 9:56 AM)
Average43 °F71%30.11 "Hg
* Reported Nov 6 6:16 PM — Nov 21 6:16 PM, Metlakatla, Weather by CustomWeather, © 2014

Note: Actual official high and low records may vary slightly from our data, if they occured in-between our weather recording intervals... More about our weather records

Advertising

Metlakatla weather history for previous 24 hours

 ConditionsComfort  
Time TempWeatherWind HumidityBarometerVisibility
6:16 PM
Nov 21
41 °FPassing clouds.5 mph87%29.26 "Hg8 mi
5:56 PM41 °FPassing clouds.3 mph87%29.26 "Hg8 mi
5:36 PM43 °FPassing clouds.3 mph81%29.26 "Hg10 mi
5:16 PM45 °FPassing clouds.3 mph81%29.26 "Hg10 mi
4:56 PM43 °FPassing clouds.3 mph81%29.26 "Hg5 mi
4:36 PM45 °FPassing clouds.No wind81%29.25 "Hg9 mi
4:16 PM45 °FPassing clouds.No wind81%29.26 "Hg10 mi
3:56 PM45 °FSunny.No wind81%29.25 "Hg10 mi
3:36 PM46 °FSunny.No wind76%29.25 "Hg10 mi
3:16 PM46 °FPassing clouds.No wind76%29.24 "Hg10 mi
2:56 PM46 °FScattered clouds.5 mph76%29.24 "Hg10 mi
2:36 PM46 °FBroken clouds.5 mph76%29.24 "Hg10 mi
2:16 PM46 °FScattered clouds.6 mph76%29.24 "Hg10 mi
1:36 PM46 °FScattered clouds.5 mph76%29.24 "Hg10 mi
12:56 PM46 °FScattered clouds.5 mph82%29.24 "Hg10 mi
12:36 PM45 °FBroken clouds.No wind93%29.24 "Hg10 mi
12:16 PM45 °FMostly cloudy.No wind87%29.24 "Hg10 mi
11:56 AM45 °FOvercast.3 mph87%29.25 "Hg10 mi
11:36 AM45 °FOvercast.3 mph87%29.24 "Hg10 mi
11:16 AM45 °FOvercast.No wind81%29.24 "Hg10 mi
10:56 AM45 °FMostly cloudy.6 mph81%29.22 "Hg7 mi
10:36 AM45 °FMore clouds than sun.15 mph87%29.21 "Hg1 mi
10:16 AM45 °FLow clouds.14 mph87%29.21 "Hg10 mi
9:56 AM46 °FOvercast.3 mph76%29.18 "Hg10 mi
9:36 AM46 °FMostly cloudy.9 mph76%29.20 "Hg10 mi
9:16 AM46 °FMostly cloudy.12 mph71%29.20 "Hg10 mi
8:56 AM46 °FMostly cloudy.10 mph76%29.21 "Hg10 mi
8:36 AM46 °FCloudy.21 mph71%29.20 "Hg7 mi
8:16 AM46 °FMostly cloudy.16 mph71%29.21 "Hg9 mi
7:56 AM46 °FMostly cloudy.16 mph71%29.22 "Hg10 mi
7:36 AM46 °FMostly cloudy.14 mph76%29.23 "Hg10 mi
7:16 AM46 °FMostly cloudy.16 mph76%29.24 "Hg10 mi
6:56 AM46 °FMostly cloudy.16 mph76%29.24 "Hg10 mi
6:36 AM46 °FOvercast.14 mph76%29.25 "Hg10 mi
6:16 AM46 °FMostly cloudy.12 mph76%29.26 "Hg9 mi
5:56 AM46 °FMostly cloudy.13 mph76%29.27 "Hg7 mi
5:36 AM46 °FPartly cloudy.13 mph76%29.27 "Hg8 mi
5:16 AM46 °FMostly cloudy.21 mph76%29.28 "Hg8 mi
4:56 AM46 °FOvercast.20 mph76%29.29 "Hg8 mi
4:16 AM46 °FMostly cloudy.14 mph71%29.32 "Hg8 mi
3:56 AM46 °FOvercast.10 mph71%29.33 "Hg8 mi
3:36 AM46 °FMostly cloudy.15 mph71%29.35 "Hg10 mi
3:16 AM46 °FOvercast.10 mph71%29.36 "Hg10 mi
2:56 AM46 °FMostly cloudy.18 mph71%29.36 "Hg10 mi
2:36 AM46 °FMostly cloudy.12 mph71%29.37 "Hg10 mi
1:56 AM46 °FOvercast.13 mph76%29.42 "Hg10 mi
1:36 AM48 °FMostly cloudy.18 mph71%29.43 "Hg10 mi
1:16 AM48 °FMostly cloudy.12 mph71%29.43 "Hg10 mi
12:56 AM48 °FMostly cloudy.10 mph76%29.44 "Hg10 mi
12:36 AM48 °FOvercast.14 mph76%29.45 "Hg10 mi
12:16 AM46 °FPartly cloudy.9 mph82%29.46 "Hg10 mi
11:56 PM
Nov 20
46 °FPassing clouds.9 mph76%29.46 "Hg10 mi
11:36 PM46 °FPartly cloudy.9 mph87%29.46 "Hg10 mi
11:16 PM46 °FPassing clouds.13 mph87%29.46 "Hg10 mi
10:56 PM46 °FPassing clouds.9 mph87%29.45 "Hg10 mi
10:36 PM46 °FPassing clouds.9 mph87%29.44 "Hg10 mi
10:16 PM46 °FPartly cloudy.7 mph87%29.44 "Hg10 mi
9:56 PM46 °FOvercast.9 mph87%29.43 "Hg10 mi
9:36 PM46 °FPartly cloudy.7 mph87%29.43 "Hg9 mi
9:16 PM46 °FMostly cloudy.10 mph87%29.43 "Hg7 mi
8:56 PM46 °FPartly cloudy.10 mph87%29.42 "Hg6 mi
8:36 PM48 °FOvercast.12 mph87%29.42 "Hg9 mi
8:16 PM48 °FMostly cloudy.8 mph87%29.41 "Hg10 mi
7:56 PM48 °FMostly cloudy.8 mph87%29.41 "Hg10 mi
7:36 PM48 °FMostly cloudy.13 mph87%29.41 "Hg10 mi
7:16 PM50 °FOvercast.8 mph76%29.41 "Hg10 mi
Weather by CustomWeather, © 2014

See weather overviewHow to use our weather pages